Location: Zapote
(9.9191°N, 84.0597°W)
Time: 04:17:48
(UTC-06:00)

Envisat - Pass Details

Date: 25 January 2021
Orbit: 764 x 766 km, 98.1° (Epoch: 25 February)

Event Time Altitude Azimuth Distance (km) Brightness Sun altitude
Rises 18:01:54 0° 208° (SSW) 3,223 7.0 -6.2°
Reaches altitude 10° 18:05:43 10° 237° (WSW) 2,297 7.0 -7.1°
Maximum altitude 18:07:40 12° 260° (W) 2,146 6.9 -7.6°
Drops below altitude 10° 18:09:38 10° 283° (WNW) 2,297 6.5 -8.1°
Sets 18:13:28 0° 313° (NW) 3,222 6.7 -9.0°
